Weather observations for the past three days for
Gadsden, Gadsden Municipal Airport
Metric (Imperial)
Date Time (cdt) Wind (kph) Vis. (km) Weather Sky Cond. Temperature (ºC) Relative Humidity Wind Chill (°C) Heat Index (°C) Pressure Precipitation (cm)
Air Dwpt 6 hour altimeter (cm) sea level (mb) 1 hr 3 hr 6 hr
Max. Min.
24 23:56 W 6 16.09 Fair CLR 20 20 100% 76 1013.0
24 22:56 Calm 16.09 Fair CLR 21.1 21.1 100% 75.97 1012.7
24 21:56 Calm 16.09 Fair CLR 21.1 21.1 100% 76 1013.0
24 20:56 NE 6 16.09 Fair CLR 21.7 21.7 100% 75.92 1012.1
24 19:56 Calm 16.09 Fair CLR 22.2 22.2 100% 75.87 1011.4
24 18:56 Calm 16.09 Fair CLR 25 22.2 26.1 22.2 85% 26 75.84 1011.2 1.04
24 17:56 SE 6 16.09 Fair CLR 25 21.7 82% 26 75.87 1011.4
24 16:56 NW 6 16.09 Fair CLR 25 21.1 79% 26 76 1013.0
24 15:56 N 6 16.09 Fair CLR 25 18.9 69% 26 76.02 1013.3 1.04
24 14:56 N 15 16.09 Fair CLR 26.1 20 69% 27 76.05 1013.9
24 13:56 N 9 16.09 Fair CLR 25.6 22.8 85% 27 76.05 1013.9 1.04
24 12:56 Vrbl 6 8.05 Thunderstorm in Vicinity Heavy Rain FEW016 SCT038 23.9 20.6 29.4 20.6 82% 24 76.15 1015.1 0.28 0.28
24 11:56 SW 13 16.09 Fair CLR 28.3 20.6 63% 30 76.1 1014.4
24 10:56 SW 7 16.09 Fair CLR 28.9 21.1 63% 31 76.07 1013.9
24 09:56 Calm 16.09 Fair CLR 27.2 21.1 69% 29 76.12 1014.7
24 08:56 Calm 16.09 Fair CLR 25 21.1 79% 26 76.15 1015.0
24 07:56 Calm 16.09 Fair CLR 22.8 21.7 94% 76.1 1014.5
24 06:56 Calm 16.09 Fair CLR 20.6 20.6 20.6 19.4 100% 76.05 1013.8
24 05:56 Calm 16.09 Fair CLR 19.4 19.4 100% 76.05 1013.7
24 04:56 N 6 16.09 Fair CLR 19.4 19.4 100% 76.02 1013.3
24 03:56 Calm 16.09 Fair CLR 19.4 19.4 100% 76.02 1013.3
24 02:56 Calm 16.09 Fair CLR 19.4 19.4 100% 76.05 1013.5
24 01:56 Calm 16.09 Fair CLR 19.4 19.4 100% 76.1 1014.3
24 00:56 Calm 16.09 Fair CLR 20 20 26.1 20 100% 76.15 1015.0
23 23:56 Calm 16.09 Fair CLR 20.6 20.6 100% 76.17 1015.4
23 22:56 Calm 16.09 Fair CLR 21.1 21.1 100% 76.17 1015.5
23 21:56 Calm 16.09 Fair CLR 21.7 21.1 96% 76.15 1015.2
23 20:56 Calm 16.09 Fair CLR 22.2 21.1 94% 76.1 1014.4
23 19:56 Calm 16.09 Fair CLR 22.8 21.7 94% 76.05 1013.9
23 18:56 Calm 16.09 Fair CLR 26.1 20 30.6 26.1 69% 27 76.02 1013.5
23 17:56 SW 7 11.27 Fair CLR 28.3 19.4 59% 30 76.02 1013.3
23 16:56 SW 11 16.09 Fair CLR 28.3 19.4 59% 30 76.05 1013.6
23 15:56 SW 19 16.09 Fair CLR 29.4 18.9 53% 31 76.15 1014.9
23 14:56 SW 19 16.09 Fair CLR 30 18.9 51% 31 76.17 1015.2
23 13:56 S 13 16.09 Fair CLR 29.4 20 57% 31 76.25 1016.3
23 12:56 S 15 16.09 A Few Clouds FEW041 29.4 20 29.4 21.7 57% 31 76.23 1016.0
23 11:56 S 15 16.09 Fair CLR 28.9 21.1 63% 31 76.25 1016.2
23 10:56 Vrbl 11 16.09 Fair CLR 27.2 21.1 69% 29 76.23 1016.1
23 09:56 E 9 9.66 Fair with Haze CLR 25 21.7 82% 26 76.2 1015.7
23 08:56 Calm 16.09 Fair CLR 22.8 21.7 94% 76.25 1016.6
23 07:56 Calm 16.09 Fair CLR 22.2 21.1 94% 76.23 1016.0
23 06:56 NE 6 16.09 Fair CLR 21.7 21.1 21.7 18.9 96% 76.15 1014.9
23 05:56 NE 7 16.09 Fair CLR 19.4 19.4 100% 76.17 1015.5
23 04:56 Calm 14.48 Fair CLR 20 20 100% 76.2 1015.7
23 03:56 Calm 16.09 Fair CLR 20 20 100% 76.2 1015.5
23 02:56 Calm 16.09 Fair CLR 20 20 100% 76.17 1015.1
23 01:56 E 6 16.09 Fair CLR 20 20 100% 76.17 1015.4
23 00:56 Calm 16.09 Fair CLR 20 20 25.6 19.4 100% 76.28 1016.7
22 23:56 Calm 16.09 Fair CLR 20 20 100% 76.28 1016.6
22 22:56 Calm 16.09 Fair CLR 20.6 20.6 100% 76.23 1016.0
22 21:56 W 6 16.09 Fair CLR 21.1 20.6 97% 76.25 1016.4
22 20:56 SE 7 16.09 Fair CLR 22.2 20.6 91% 76.15 1015.2
22 19:56 S 6 16.09 Fair CLR 25.6 19.4 69% 27 76.15 1015.2
22 18:56 Calm 16.09 Fair CLR 25.6 21.7 30 25.6 79% 27 76.25 1016.6
22 17:56 W 13 16.09 A Few Clouds FEW050 27.2 20.6 67% 29 76.25 1016.4
22 16:56 Calm 16.09 A Few Clouds FEW050 28.3 20 61% 30 76.15 1014.9
22 15:56 S 13 16.09 A Few Clouds FEW050 29.4 18.9 53% 31 76.07 1014.0
22 14:56 SW 17 16.09 Fair CLR 29.4 17.8 50% 30 76.12 1014.8
22 13:56 Vrbl 11 16.09 Fair CLR 29.4 18.3 51% 30 76.2 1015.8
22 12:56 S 11 16.09 A Few Clouds FEW046 28.9 18.3 28.9 18.9 53% 30 76.25 1016.4
22 11:56 S 17 16.09 A Few Clouds FEW041 28.3 18.9 57% 30 76.25 1016.5
22 10:56 Calm 16.09 Partly Cloudy SCT032 26.7 20 67% 28 76.28 1016.8
22 09:56 SW 7 16.09 Fair CLR 25.6 20 71% 27 76.33 1017.5
22 08:56 Vrbl 6 16.09 Fair CLR 23.9 19.4 76% 24 76.35 1017.9
22 07:56 Calm 16.09 Fair CLR 21.1 20 93% 76.35 1017.9
22 06:56 Calm 16.09 Fair CLR 18.3 18.3 20 17.2 100% 76.3 1017.0
22 05:56 S 6 16.09 Fair CLR 17.8 17.8 100% 76.2 1015.9
22 04:56 Calm 16.09 Fair CLR 17.8 17.8 100% 76.23 1016.2
22 03:56 Calm 16.09 Fair CLR 17.8 17.8 100% 76.2 1015.7
22 02:56 Calm 16.09 Fair CLR 17.8 17.8 100% 76.25 1016.4
22 01:56 Calm 16.09 Fair CLR 18.3 18.3 100% 76.2 1015.7
22 00:56 E 6 16.09 Fair CLR 18.9 18.9 27.8 18.3 100% 76.17 1015.5
Date Time (cdt) Wind (kph) Vis. (km) Weather Sky Cond. Air Dwpt Max. Min. Relative Humidity Wind Chill (°C) Heat Index (°C) altimeter (cm) sea level (mb) 1 hr 3 hr 6 hr
6 hour
Temperature (ºC) Pressure Precipitation (cm)